Terug naar catalogus

STARLINK-32425

ActiefCommunicatieVLEO
NORAD 61216·PAYLOAD·🇺🇸 United States

Gelanceerd Sep 20, 2024 vanaf Vandenberg Space Force Base

Loading…

Volgende Passages (komende 24 uur)

TLE

VersSource: CelesTrak SupGP

Epoch: Sep 15, 2026, 02:44 UTC

1 61216C 24171S   26258.11437500  .00001656  00000+0  53245-4 0  2583
2 61216  53.1581 161.7061 0001509  80.4958 246.9966 15.31700088    18

Volg STARLINK-32425 in realtime met AllMySat

Download on the App Store